User: anonymous   Login
Location: Unspecified
(0.0000°N, 0.0000°E)
Time: 02:27:48
(UTC+00:00)
Language:

COSMOS 2471 (GLONASS) - Orbit

View from above orbital plane
View from above orbital plane
View from above satellite
View from above satellite

Ground track
Ground track

The orbit data is extracted from the following two-line orbital elements,

1 37372U 11009A   18320.35292153 -.00000062  00000-0  00000+0 0  9995
2 37372  65.6483  47.1891 0009380 226.2461  89.9933  2.13107624 60068
Epoch (UTC): 16 November 2018 08:28:12
Eccentricity: 0.0009380
inclination: 65.6483°
perigee height: 19105 km
apogee height: 19153 km
right ascension of ascending node: 47.1891°
argument of perigee: 226.2461°
revolutions per day: 2.13107624
mean anomaly at epoch: 89.9933°
orbit number at epoch: 6006

The dashed part of the orbit path shows where the satellite is in the earth's shadow,  

DLR